[[{"header":{"parameterUnit":"m.s-1","parameterCategory":1,"la1":30.2991,"la2":30.254,"lo1":-89.0895,"lo2":-89.0444,"dy":0.0017,"dx":0.0017,"nx":28,"ny":28,"refTime":"2025-03-26T09:00:00:Z","depth":0,"parameterNumber":2,"parameterNumberName":"U-component_of_WINDS"},"data":[0,0,0,0,0,0,0,0,0,0,0,0,0,0,0,0,0,0,0,0,0,0,0,0,0,0,0,0,0,0,0,0,0,0,0,0,0,0,0,0,0,0,0,0,0,0,0,0,0,0,0,0,0,0,0,0,0,0,-5.4654,-5.4655,0,-5.4729,-5.473,-5.4731,-5.4632,-5.4629,-5.4625,-5.4622,-5.4696,-5.4701,-5.4706,0,0,0,0,0,0,0,0,0,0,0,0,0,-5.4424,-5.4428,-5.4654,-5.4655,-5.4656,-5.4729,-5.473,-5.4731,-5.4633,-5.4628,-5.4624,-5.462,-5.4694,-5.47,-5.4707,0,0,0,0,0,0,0,0,0,0,0,0,0,-5.4514,-5.443,-5.4654,-5.4616,-5.4613,-5.4729,-5.473,-5.4732,-5.4634,-5.4628,-5.4623,-5.4618,-5.4692,-5.47,-5.4708,-5.4864,0,0,-5.4732,-5.4735,0,0,0,0,0,0,0,0,-5.4509,-5.4522,-5.462,-5.4619,-5.4616,-5.4666,-5.4676,-5.4776,-5.4635,-5.4626,-5.4622,-5.4615,-5.469,-5.4698,-5.4723,-5.4867,-5.487,-5.4732,-5.4737,-5.4741,-5.4743,0,0,0,0,0,0,0,-5.4503,-5.4518,-5.4684,-5.4622,-5.4619,-5.4594,-5.4601,-5.4694,-5.4687,-5.4626,-5.4619,-5.463,-5.4688,-5.4716,-5.4725,-5.4871,-5.4732,-5.4739,-5.4744,-5.4747,-5.5147,-5.5152,0,0,0,0,0,0,-5.4501,-5.4514,-5.4681,-5.4686,-5.4548,-5.4603,-5.4611,-5.4655,-5.4686,-5.4685,-5.4634,-5.4625,-5.4705,-5.4715,-5.4727,-5.4911,-5.4741,-5.4748,-5.4753,-5.5141,-5.5148,-5.5154,0,0,0,0,0,0,-5.4497,-5.4517,-5.4678,-5.4598,-5.4617,-5.4613,-5.4664,-5.466,-5.4688,-5.4692,-5.469,-5.4665,-5.4701,-5.4716,-5.4831,-5.4912,-5.4752,-5.4759,-5.5134,-5.5143,-5.5151,-5.5281,0,0,0,0,0,0,-5.449,-5.4516,-5.4575,-5.46,-5.4622,-5.4782,-5.4669,-5.4665,-5.4702,-5.4691,-5.472,-5.4719,-5.4698,-5.4819,-5.4838,-5.492,-5.4765,-5.5127,-5.5138,-5.5148,-5.5269,-5.5293,-5.5313,0,0,0,0,0,-5.4483,-5.4608,-5.4579,-5.46,-5.4696,-5.4787,-5.4799,-5.4772,-5.4709,-5.4768,-5.4771,-5.4718,-5.4901,-5.4832,-5.4853,-5.4938,-5.5121,-5.5135,-5.5148,-5.5259,-5.5288,-5.5313,0,0,0,0,0,0,-5.4592,-5.4611,-5.4578,-5.4716,-5.4751,-5.477,-5.4844,-5.4804,-5.4856,-5.4843,-5.4808,-5.4815,-5.4938,-5.495,-5.4873,-5.5091,-5.5,-5.5018,-5.5078,-5.5106,-5.5127,-5.5121,-5.4772,0,0,0,0,0,-5.4632,-5.4705,-5.4717,-5.4838,-5.4857,-5.4848,-5.4886,-5.4864,-5.4897,-5.4911,-5.4922,-5.4956,-5.5021,-5.5064,-5.5124,-5.5271,-5.5276,-5.534,-5.5362,-5.5381,-5.5396,-5.5474,-5.5502,-5.5198,-5.5197,-5.5197,0,0,-5.4715,-5.4735,-5.4783,-5.486,-5.4884,-5.496,-5.4861,-5.4944,-5.5,-5.4923,-5.5032,-5.5043,-5.5078,-5.521,-5.5269,-5.5223,-5.5481,-5.5397,-5.5412,-5.5417,-5.549,-5.5519,-5.5545,-5.5207,-5.5205,-5.5203,0,0,-5.4905,-5.4929,-5.5031,-5.5058,-5.5096,-5.509,-5.5115,-5.5141,-5.5144,-5.5254,-5.5198,-5.5264,-5.5376,-5.5404,-5.5433,-5.5637,-5.559,-5.5658,-5.5771,-5.5848,-5.5872,-5.5893,-5.5965,-5.5991,-5.5673,-5.5674,-5.5674,0,-5.5004,-5.5116,-5.5088,-5.5177,-5.5212,-5.5149,-5.5252,-5.5279,-5.5335,-5.536,-5.531,-5.5451,-5.547,-5.5607,-5.5657,-5.5684,-5.571,-5.5652,-5.5871,-5.5892,-5.5911,-5.5979,-5.6006,-5.5681,-5.568,-5.568,-5.5679,0,-5.5234,-5.5313,-5.5392,-5.5448,-5.5493,-5.5588,-5.5575,-5.5623,-5.5598,-5.5597,-5.5709,-5.5731,-5.5794,-5.5826,-5.5801,-5.596,-5.5931,-5.5877,-5.5785,-5.5949,-5.6011,-5.6037,-5.5693,-5.569,-5.5687,-5.5685,0,0,-5.5492,-5.5534,-5.5563,-5.5588,-5.5627,-5.5687,-5.5781,-5.5844,-5.5885,-5.5927,-5.6003,-5.6101,-5.6052,-5.6085,-5.6063,-5.6131,-5.629,-5.6068,-5.6068,-5.6107,-5.6465,-5.6504,-5.6535,-5.626,-5.6265,-5.6269,-5.6462,0,-5.5681,-5.5842,-5.5821,-5.5975,-5.6047,-5.599,-5.6071,-5.6103,-5.6106,-5.6167,-5.6169,-5.6238,-5.6169,-5.6188,-5.6253,-5.6257,-5.6361,-5.6243,-5.6329,-5.6333,-5.6319,-5.6568,-5.6609,-5.6789,-5.6486,-5.649,-5.6493,0,-5.5922,-5.5973,-5.6135,-5.6164,-5.6193,-5.6267,-5.6323,-5.6383,-5.6419,-5.6416,-5.6455,-5.6421,-5.6514,-5.6423,-5.6549,-5.647,-5.6504,-5.6512,-5.6518,-5.6523,-5.6421,-5.6577,-5.6846,-5.6872,-5.6532,-5.6529,-5.6526,0,-5.6091,-5.6202,-5.6312,-5.6336,-5.6373,-5.6425,-5.6443,-5.6474,-5.6514,-5.6564,-5.6589,-5.6649,-5.6681,-5.6728,-5.6712,-5.6647,-5.6842,-5.6749,-5.684,-5.6841,-5.6881,-5.6878,-5.7157,-5.6908,-5.6908,-5.6907,-5.6906,0,-5.6303,-5.6404,-5.6389,-5.6457,-5.6569,-5.6544,-5.6655,-5.6666,-5.6694,-5.6763,-5.6717,-5.6782,-5.6758,-5.6822,-5.681,-5.6916,-5.6932,-5.6931,-5.6926,-5.6934,-5.6934,-5.6954,-5.694,-5.6914,-5.6913,-5.6911,-5.691,0,-5.6509,-5.6504,-5.6621,-5.6647,-5.6656,-5.6737,-5.6759,-5.6823,-5.6823,-5.6911,-5.693,-5.6929,-5.7002,-5.6992,-5.7073,-5.7065,-5.7196,-5.7178,-5.7184,-5.7179,-5.727,-5.7261,-5.757,-5.7608,-5.7336,-5.7339,-5.7341,0,-5.6643,-5.672,-5.6755,-5.6798,-5.682,-5.6891,-5.6931,-5.6911,-5.6955,-5.7004,-5.7062,-5.7131,-5.7185,-5.7304,-5.731,-5.7372,-5.7353,-5.7457,-5.7362,-5.7367,-5.7352,-5.7347,-5.7354,-5.7475,-5.7478,-5.7481,-5.7483,0,-5.6881,-5.6875,-5.6936,-5.6998,-5.7048,-5.7095,-5.7137,-5.7175,-5.7159,-5.7211,-5.7286,-5.7328,-5.7412,-5.7481,-5.7539,-5.7556,-5.7517,-5.7514,-5.7537,-5.7544,-5.7544,-5.7544,-5.7233,-5.7505,-5.7503,-5.7501,-5.75,-5.7499,-5.7054,-5.7119,-5.7155,-5.7225,-5.7255,-5.7296,-5.7357,-5.7366,-5.7428,-5.7495,-5.748,-5.7564,-5.7599,-5.7674,-5.7698,-5.7763,-5.7725,-5.776,-5.7768,-5.7777,-5.7787,-5.7537,-5.7774,-5.7773,-5.7773,-5.7772,-5.7772,0,-5.7288,-5.7308,-5.7373,-5.7434,-5.749,-5.7451,-5.7496,-5.7544,-5.7619,-5.7656,-5.7711,-5.7797,-5.7864,-5.7878,-5.7941,-5.7991,-5.7975,-5.8009,-5.8003,-5.8008,-5.7818,-5.779,-5.8021,-5.8021,-5.8021,-5.8021,-5.8021,-5.8021,-5.7416,-5.7524,-5.7523,-5.7646,-5.7665,-5.7749,-5.7778,-5.7815,-5.7844,-5.7943,-5.7999,-5.8008,-5.8035,-5.8102,-5.8162,-5.8164,-5.8188,-5.8229,-5.8224,-5.8046,-5.8021,-5.7997,-5.797,-5.8235,-5.8235,-5.8407,-5.8409,-5.841]},{"header":{"parameterUnit":"m.s-1","parameterCategory":1,"la1":30.2991,"la2":30.254,"lo1":-89.0895,"lo2":-89.0444,"dy":0.0017,"dx":0.0017,"nx":28,"ny":28,"refTime":"2025-03-26T09:00:00:Z","depth":0,"parameterNumber":3,"parameterNumberName":"V-component_of_WINDS"},"data":[0,0,0,0,0,0,0,0,0,0,0,0,0,0,0,0,0,0,0,0,0,0,0,0,0,0,0,0,0,0,0,0,0,0,0,0,0,0,0,0,0,0,0,0,0,0,0,0,0,0,0,0,0,0,0,0,0,0,1.6547,1.6548,0,1.6642,1.6643,1.6644,1.666,1.6659,1.6658,1.6657,1.675,1.6753,1.6756,0,0,0,0,0,0,0,0,0,0,0,0,0,1.6375,1.6378,1.6547,1.6548,1.6549,1.6642,1.6643,1.6645,1.666,1.6659,1.6658,1.6657,1.6749,1.6753,1.6757,0,0,0,0,0,0,0,0,0,0,0,0,0,1.6458,1.6379,1.6547,1.6568,1.6571,1.6642,1.6643,1.6645,1.666,1.6659,1.6657,1.6656,1.6748,1.6752,1.6757,1.6812,0,0,1.6772,1.6774,0,0,0,0,0,0,0,0,1.6453,1.6464,1.6564,1.6567,1.657,1.6638,1.6617,1.6701,1.666,1.6626,1.6657,1.6656,1.6713,1.6721,1.6741,1.6816,1.682,1.6772,1.6775,1.6777,1.6779,0,0,0,0,0,0,0,1.6447,1.646,1.6584,1.6565,1.6569,1.6572,1.6582,1.6633,1.6675,1.6629,1.663,1.6642,1.6715,1.6737,1.6744,1.6822,1.6772,1.6777,1.678,1.6781,1.6949,1.695,0,0,0,0,0,0,1.6438,1.6455,1.6581,1.6587,1.6508,1.6576,1.6588,1.6617,1.6675,1.6682,1.6643,1.6642,1.6729,1.6738,1.6747,1.6817,1.6777,1.6782,1.6785,1.6947,1.6949,1.6951,0,0,0,0,0,0,1.6434,1.6449,1.6578,1.6522,1.6538,1.658,1.6613,1.662,1.6642,1.6685,1.6692,1.6657,1.6728,1.674,1.6797,1.682,1.6784,1.6789,1.6945,1.6948,1.695,1.6956,0,0,0,0,0,0,1.6429,1.6448,1.647,1.6522,1.6541,1.6626,1.6615,1.6623,1.6651,1.6651,1.6701,1.6708,1.6728,1.6789,1.6801,1.6826,1.6792,1.6944,1.6947,1.6949,1.6954,1.6958,1.6962,0,0,0,0,0,1.6423,1.6466,1.6471,1.6486,1.6569,1.6628,1.6639,1.6662,1.6652,1.6675,1.6703,1.6706,1.6816,1.6795,1.6809,1.6835,1.6942,1.6946,1.6949,1.6952,1.6958,1.6962,0,0,0,0,0,0,1.6412,1.6473,1.6479,1.654,1.6579,1.663,1.6659,1.6667,1.6708,1.6706,1.6732,1.6744,1.6799,1.6823,1.6799,1.6893,1.6878,1.6884,1.6876,1.6881,1.6885,1.6879,1.6796,0,0,0,0,0,1.6418,1.6461,1.6511,1.656,1.658,1.6616,1.6642,1.6658,1.6698,1.6714,1.6746,1.6785,1.6828,1.6855,1.6897,1.6957,1.6969,1.6983,1.6987,1.699,1.6995,1.7031,1.7038,1.6962,1.6962,1.6962,0,0,1.6428,1.6466,1.6492,1.6559,1.6591,1.6635,1.6629,1.6675,1.6709,1.672,1.6777,1.6802,1.6846,1.6906,1.6933,1.6927,1.7019,1.6994,1.6996,1.7,1.7035,1.7042,1.7049,1.6964,1.6964,1.6964,0,0,1.647,1.6502,1.6548,1.6582,1.6631,1.6655,1.6666,1.6717,1.6735,1.6793,1.6804,1.6842,1.6916,1.6948,1.6974,1.7031,1.7036,1.7043,1.7064,1.7099,1.7105,1.711,1.7133,1.714,1.7048,1.7048,1.7048,0,1.6476,1.6544,1.657,1.6618,1.6648,1.6663,1.671,1.674,1.6799,1.6819,1.6812,1.6907,1.6937,1.7005,1.702,1.7039,1.7053,1.7038,1.7102,1.7108,1.7113,1.7135,1.7143,1.7049,1.7049,1.7049,1.7049,0,1.655,1.6597,1.6628,1.6689,1.6722,1.6768,1.6802,1.6832,1.6845,1.687,1.6929,1.6967,1.7018,1.7035,1.7046,1.7105,1.71,1.7097,1.7083,1.7121,1.7142,1.715,1.705,1.705,1.705,1.7049,0,0,1.6586,1.6664,1.6675,1.6704,1.676,1.6797,1.6844,1.6897,1.6923,1.6964,1.7005,1.7068,1.7067,1.7096,1.7112,1.7142,1.7187,1.7135,1.7137,1.7145,1.7256,1.7259,1.7268,1.7191,1.7192,1.7194,1.7253,0,1.6636,1.6724,1.675,1.6823,1.6868,1.6885,1.6926,1.6965,1.699,1.7031,1.7058,1.7104,1.7097,1.7115,1.7146,1.7175,1.721,1.7171,1.7229,1.7231,1.7219,1.7279,1.7282,1.7336,1.7261,1.7262,1.7263,0,1.6706,1.6752,1.683,1.6884,1.6904,1.6941,1.6993,1.7031,1.7076,1.7093,1.7127,1.7141,1.7191,1.7174,1.7244,1.7217,1.7242,1.726,1.7263,1.727,1.725,1.7289,1.7354,1.7363,1.7276,1.7275,1.7274,0,1.6727,1.6808,1.6866,1.689,1.6954,1.698,1.7008,1.7052,1.7082,1.7126,1.7147,1.7195,1.7222,1.7259,1.7286,1.7271,1.7354,1.7339,1.7369,1.7369,1.7387,1.7385,1.7458,1.7401,1.74,1.74,1.74,0,1.6781,1.6829,1.6877,1.6913,1.6968,1.6997,1.705,1.7078,1.7117,1.7159,1.7174,1.7212,1.7245,1.7287,1.7308,1.7364,1.7375,1.739,1.7395,1.7389,1.7388,1.7407,1.7404,1.7403,1.7402,1.7402,1.7401,0,1.6814,1.6849,1.6914,1.697,1.6985,1.7023,1.7071,1.7106,1.7132,1.7185,1.7198,1.7239,1.729,1.7321,1.7384,1.7398,1.7461,1.7463,1.7446,1.7449,1.7479,1.7476,1.7567,1.7582,1.7513,1.7514,1.7514,0,1.6847,1.6885,1.6946,1.6977,1.7005,1.7053,1.7085,1.7116,1.7149,1.7204,1.7233,1.7286,1.733,1.741,1.7445,1.7494,1.7499,1.7528,1.7506,1.75,1.7502,1.75,1.7505,1.7531,1.7532,1.7532,1.7533,0,1.6902,1.6918,1.6965,1.7019,1.7058,1.7101,1.7144,1.7167,1.7205,1.7241,1.7295,1.7329,1.7396,1.7448,1.7501,1.7528,1.7537,1.7539,1.7549,1.7545,1.7534,1.7542,1.7458,1.7537,1.7537,1.7536,1.7536,1.7536,1.6938,1.6973,1.7023,1.7076,1.7112,1.7152,1.7189,1.7221,1.7267,1.7326,1.7341,1.7398,1.7443,1.7515,1.7544,1.7588,1.7584,1.7598,1.7601,1.7605,1.7607,1.7526,1.7598,1.7598,1.7598,1.7597,1.7597,0,1.6996,1.7029,1.7077,1.7139,1.718,1.7187,1.7235,1.7269,1.732,1.7363,1.7407,1.7469,1.7521,1.756,1.7613,1.7641,1.7647,1.7654,1.7653,1.7659,1.7607,1.7594,1.7649,1.7649,1.7649,1.7649,1.7649,1.7649,1.7031,1.7092,1.7114,1.7194,1.7227,1.7285,1.7312,1.7349,1.7384,1.7454,1.7498,1.7524,1.7566,1.7622,1.767,1.768,1.7699,1.7706,1.7717,1.7668,1.7663,1.7657,1.7645,1.771,1.771,1.7766,1.7767,1.7767]}]]